Home   Weather   Hong Kong   Past weeks
Flag for Hong Kong

Past Weather in Hong Kong, Hong Kong — Yesterday and Last 2 Weeks

Now
91 °F

Passing clouds.


Feels Like: 108 °F
Forecast: 92 / 83 °F
Wind: 14 mph from Southwest

Location: National Airport

Current Time: Jul 17, 2019 at 6:42:53 pm

Latest Report: Jul 17, 2019 at 6:00 pm


Visibility: N/A

Pressure: 29.50 "Hg

Humidity: 67%

Dew Point: 79 °F

Location of Hong KongLocation

Past Weather in Hong Kong — Graph

°F

Hong Kong Temperature Yesterday

Maximum temperature yesterday: 93 °F (at 1:00 pm)
Minimum temperature yesterday: 82 °F (at 6:00 am)
Average temperature yesterday: 88 °F

High & Low Weather Summary for the Past Weeks

 TemperatureHumidityPressure
High95 °F (Jul 15, 1:00 pm)100% (Jul 2, 11:30 pm)29.80 "Hg (Jul 2, 11:30 pm)
Low79 °F (Jul 2, 11:30 pm)47% (Jul 16, 3:00 pm)29.47 "Hg (Jul 17, 5:00 pm)
Average86 °F76%29.66 "Hg
* Reported Jul 2 5:00 pm — Jul 17 5:30 pm, Hong Kong. Weather by CustomWeather, © 2019

Note: Actual official high and low records may vary slightly from our data, if they occured in-between our weather recording intervals... More about our weather records

Advertising

Hong Kong Weather History for the Previous 24 Hours

Scroll right to see more
 ConditionsComfort  
Time TempWeatherWind HumidityBarometerVisibility
5:30 pm
Wed, Jul 17
91 °FPassing clouds.14 mph67%29.47 "HgN/A
5:00 pm91 °FPassing clouds.14 mph67%29.47 "HgN/A
4:30 pm91 °FPassing clouds.15 mph71%29.50 "HgN/A
4:00 pm91 °FPassing clouds.14 mph75%29.50 "Hg4 mi
3:30 pm95 °FPassing clouds.7 mph53%29.50 "HgN/A
3:00 pm95 °FPassing clouds.5 mph53%29.53 "Hg6 mi
2:30 pm95 °FPassing clouds.8 mph56%29.56 "Hg6 mi
2:00 pm93 °FPassing clouds.8 mph59%29.56 "Hg6 mi
1:30 pm95 °FPassing clouds.7 mph60%29.59 "Hg6 mi
1:00 pm93 °FPassing clouds.6 mph63%29.59 "Hg5 mi
12:30 pm93 °FPassing clouds.6 mph67%29.59 "Hg4 mi
12:00 pm91 °FPassing clouds.5 mph71%29.59 "Hg4 mi
11:30 am91 °FPassing clouds.7 mph71%29.62 "Hg4 mi
11:00 am91 °FPassing clouds.6 mph71%29.62 "Hg4 mi
10:30 am90 °FPassing clouds.7 mph75%29.62 "Hg5 mi
10:00 am88 °FPassing clouds.6 mph79%29.62 "Hg5 mi
9:30 am88 °FPassing clouds.5 mph79%29.62 "Hg6 mi
9:00 am88 °FPassing clouds.5 mph79%29.62 "HgN/A
8:30 am86 °FPassing clouds.5 mph79%29.62 "HgN/A
8:00 am86 °FPassing clouds.6 mph79%29.62 "HgN/A
7:30 am86 °FPassing clouds.5 mph79%29.62 "HgN/A
7:00 am86 °FPassing clouds.2 mph79%29.62 "HgN/A
6:30 am84 °FPassing clouds.3 mph84%29.62 "HgN/A
6:00 am84 °FPassing clouds.2 mph84%29.62 "HgN/A
5:30 am84 °FPassing clouds.2 mph79%29.59 "HgN/A
5:00 am84 °FPassing clouds.2 mph79%29.59 "HgN/A
4:30 am84 °FPassing clouds.3 mph79%29.59 "HgN/A
4:00 am84 °FPassing clouds.3 mph84%29.59 "HgN/A
3:30 am84 °FPassing clouds.6 mph84%29.59 "HgN/A
3:00 am84 °FPassing clouds.7 mph84%29.59 "HgN/A
2:30 am84 °FPassing clouds.7 mph84%29.62 "HgN/A
2:00 am84 °FClear.6 mph79%29.62 "Hg10 mi
1:30 am86 °FPassing clouds.3 mph75%29.62 "HgN/A
1:00 am84 °FClear.2 mph79%29.62 "Hg10 mi
12:30 am86 °FClear.3 mph75%29.62 "Hg10 mi
12:00 am86 °FClear.7 mph75%29.65 "Hg10 mi
11:30 pm
Tue, Jul 16
86 °FClear.7 mph75%29.65 "Hg10 mi
11:00 pm86 °FPassing clouds.5 mph75%29.65 "HgN/A
10:30 pm86 °FPassing clouds.7 mph75%29.65 "HgN/A
10:00 pm86 °FClear.6 mph79%29.65 "Hg10 mi
9:30 pm86 °FClear.3 mph79%29.62 "Hg10 mi
9:00 pm88 °FPassing clouds.3 mph75%29.62 "HgN/A
8:30 pm88 °FPassing clouds.6 mph75%29.62 "HgN/A
8:00 pm88 °FPassing clouds.5 mph75%29.62 "HgN/A
7:30 pm90 °FPassing clouds.7 mph67%29.62 "HgN/A
7:00 pm88 °FPassing clouds.7 mph75%29.62 "HgN/A
6:30 pm90 °FPassing clouds.8 mph67%29.62 "HgN/A
6:00 pm91 °FPassing clouds.10 mph63%29.62 "HgN/A
Weather by CustomWeather, © 2019

See weather overview